Regional Weather Roundup
Issued by NWS Goodland, KS

Home | Current Version | Previous Version | Graphics & Text | Print | Product List | Glossary On
Versions: 1 2 3 4 5 6 7 8 9 10 11 12 13 14 15 16 17 18 19 20 21 22 23 24 25 26 27 28 29 30 31 32 33 34 35 36 37 38 39 40 41 42 43 44 45 46 47 48 49 50
000
ASUS43 KGLD 271859
RWRGLD

GOODLAND FORECAST AREA HOURLY WEATHER ROUNDUP
NATIONAL WEATHER SERVICE GOODLAND KS
100 PM MDT SUN JUL 27 2014

...OFFICIAL OBSERVATIONS...

CITY           SKY/WX    TMP DP  RH WIND       PRES   REMARKS
GOODLAND KS    SUNNY     84  52  33 NE9       30.30F
HILL CITY KS   SUNNY     91  46  21 NE14G21   30.21F
IMPERIAL NEB   SUNNY     84  44  24 NE9       30.29F
MCCOOK NEB     MOSUNNY   87  47  24 NE8       30.25F
AKRON CO       SUNNY     81  48  31 SE14G23   30.35F
BURLINGTON CO  SUNNY     81  55  40 E8G18     30.33F
LIMON CO       SUNNY     82  46  28 SE13      30.37F
$$

...UNOFFICIAL OBSERVATIONS...

CITY           SKY/WX    TMP DP  RH WIND       PRES   REMARKS
COLBY KS       MOSUNNY   84  57  39 E14       30.28S
LENORA KS        N/A     86  32  14 MISG        N/A
NORTON KS      MOSUNNY   88  41  19 N10G22    30.22S
KIT CARSON CO    N/A     81  56  42 N13G25      N/A
YUMA CO          N/A     82  48  30 E12         N/A
$$



USA.gov is the U.S. government's official web portal to all federal, state and local government web resources and services.